Orbital Elements at Epoch 2459000.5 (2020-May-31.0) TDB
Reference: JPL 6 (heliocentric ecliptic J2000)
Element | Value | Uncertainty (1-sigma) | Units |
e | .182726491607837 | 3.7613e-05 | |
a | 55.0567992175149 | 0.0026708 | au |
q | 44.99646345734129 | 0.0015304 | au |
i | 40.59757279274379 | 1.3293e-05 | deg |
node | 91.30225779574639 | 0.00020572 | deg |
peri | 31.38224717230814 | 0.010605 | deg |
M | 43.26783489589316 | 0.0085178 | deg |
tp | 2441066.484969746321 (1971-Apr-24.98496975) | 2.5817 | TDB |
period | 149215.8187814507 408.53 | 10.858 0.02973 | d yr |
n | .002412612837833734 | 1.7555e-07 | deg/d |
Q | 65.11713497768851 | 0.0031588 | au |
|
| | Orbit Determination Parameters
Additional Information
|